Meteo pe oră la Czyzowice

Astăzi, 17 Aprilie, Sâmbătă

Timp Temperatura Precipitaţii Vânt Presiune Umiditate
00:00 +2°C° 0.4 mm 3 m/s 740 mmHg 98%
01:00 +2°C° 0.4 mm 3 m/s 740 mmHg 98%
02:00 +2°C° 0.3 mm 3 m/s 740 mmHg 98%
03:00 +1°C° 0.3 mm 3 m/s 740 mmHg 98%
04:00 +1°C° 0.3 mm 3 m/s 740 mmHg 98%
05:00 +1°C° 0.2 mm 3 m/s 740 mmHg 98%
06:00 +2°C° 0.2 mm 2 m/s 740 mmHg 98%
07:00 +2°C° 0.2 mm 2 m/s 740 mmHg 98%
08:00 +2°C° 0.2 mm 2 m/s 740 mmHg 98%
09:00 +2°C° 0.2 mm 2 m/s 740 mmHg 98%
10:00 +3°C° 0.2 mm 2 m/s 740 mmHg 98%
11:00 +3°C° 0.1 mm 2 m/s 740 mmHg 98%
12:00 +3°C° 0.1 mm 2 m/s 740 mmHg 98%
13:00 +4°C° 0.1 mm 1 m/s 740 mmHg 98%
14:00 +3°C° 0.2 mm 2 m/s 740 mmHg 98%
15:00 +3°C° 0.2 mm 2 m/s 740 mmHg 98%
16:00 +3°C° 0.2 mm 2 m/s 740 mmHg 98%
17:00 +4°C° 0 mm 1 m/s 740 mmHg 98%
18:00 +4°C° 0 mm 1 m/s 740 mmHg 98%
19:00 +4°C° 0 mm 1 m/s 740 mmHg 98%
20:00 +4°C° 0 mm 1 m/s 740 mmHg 98%
21:00 +4°C° 0 mm 1 m/s 740 mmHg 98%
22:00 +4°C° 0 mm 1 m/s 740 mmHg 98%
23:00 +4°C° 0 mm 0 m/s 740 mmHg 98%

Mâine, 18 Aprilie, Duminică

Timp Temperatura Precipitaţii Vânt Presiune Umiditate
00:00 +4°C° 0 mm 0 m/s 740 mmHg 98%
01:00 +4°C° 0 mm 0 m/s 740 mmHg 98%
02:00 +4°C° 0.1 mm 0 m/s 740 mmHg 98%
03:00 +4°C° 0.1 mm 0 m/s 739 mmHg 98%
04:00 +4°C° 0.1 mm 0 m/s 739 mmHg 99%
05:00 +4°C° 0.1 mm 0 m/s 739 mmHg 98%
06:00 +5°C° 0.1 mm 1 m/s 739 mmHg 98%
07:00 +5°C° 0.1 mm 1 m/s 739 mmHg 98%
08:00 +6°C° 0 mm 1 m/s 739 mmHg 94%
09:00 +7°C° 0 mm 1 m/s 739 mmHg 91%
10:00 +7°C° 0 mm 1 m/s 740 mmHg 88%
11:00 +8°C° 0.1 mm 1 m/s 739 mmHg 84%
12:00 +9°C° 0.1 mm 1 m/s 739 mmHg 80%
13:00 +8°C° 0.1 mm 2 m/s 739 mmHg 76%
14:00 +8°C° 0 mm 2 m/s 739 mmHg 76%
15:00 +10°C° 0 mm 1 m/s 739 mmHg 77%
16:00 +10°C° 0 mm 1 m/s 739 mmHg 77%
17:00 +9°C° 0 mm 1 m/s 739 mmHg 80%
18:00 +8°C° 0 mm 1 m/s 739 mmHg 82%
19:00 +8°C° 0 mm 1 m/s 739 mmHg 85%
20:00 +7°C° 0 mm 1 m/s 739 mmHg 86%
21:00 +7°C° 0 mm 1 m/s 739 mmHg 86%
22:00 +7°C° 0 mm 1 m/s 739 mmHg 87%
23:00 +7°C° 0 mm 1 m/s 739 mmHg 89%

Poimâine, 19 Aprilie, Luni

Timp Temperatura Precipitaţii Vânt Presiune Umiditate
00:00 +6°C° 0 mm 1 m/s 739 mmHg 90%
01:00 +6°C° 0 mm 1 m/s 739 mmHg 91%
02:00 +6°C° 0 mm 1 m/s 738 mmHg 92%
03:00 +6°C° 0 mm 1 m/s 738 mmHg 93%
04:00 +6°C° 0 mm 1 m/s 738 mmHg 93%
05:00 +5°C° 0 mm 2 m/s 738 mmHg 92%
06:00 +6°C° 0 mm 2 m/s 738 mmHg 91%
07:00 +6°C° 0 mm 2 m/s 738 mmHg 90%
08:00 +7°C° 0.2 mm 2 m/s 738 mmHg 90%
09:00 +8°C° 0.2 mm 2 m/s 738 mmHg 90%
10:00 +8°C° 0.2 mm 2 m/s 738 mmHg 90%
11:00 +9°C° 0.3 mm 2 m/s 737 mmHg 87%
12:00 +9°C° 0.3 mm 2 m/s 737 mmHg 84%
13:00 +10°C° 0.3 mm 2 m/s 737 mmHg 82%
14:00 +10°C° 0.2 mm 2 m/s 737 mmHg 81%
15:00 +10°C° 0.2 mm 2 m/s 737 mmHg 80%
16:00 +10°C° 0.2 mm 2 m/s 736 mmHg 79%
17:00 +10°C° 0.2 mm 2 m/s 736 mmHg 82%
18:00 +9°C° 0.2 mm 2 m/s 736 mmHg 86%
19:00 +8°C° 0.2 mm 2 m/s 736 mmHg 89%
20:00 +8°C° 0.2 mm 2 m/s 736 mmHg 91%
21:00 +9°C° 0.2 mm 1 m/s 736 mmHg 92%
22:00 +8°C° 0.2 mm 1 m/s 736 mmHg 93%
23:00 +8°C° 0.1 mm 1 m/s 736 mmHg 94%

20 Aprilie, Marţi

Timp Temperatura Precipitaţii Vânt Presiune Umiditate
00:00 +8°C° 0.1 mm 1 m/s 736 mmHg 94%
01:00 +8°C° 0.1 mm 1 m/s 736 mmHg 94%
02:00 +7°C° 0.1 mm 1 m/s 736 mmHg 95%
03:00 +7°C° 0.1 mm 1 m/s 736 mmHg 96%
04:00 +6°C° 0.1 mm 1 m/s 736 mmHg 96%
05:00 +7°C° 0.1 mm 1 m/s 736 mmHg 95%
06:00 +7°C° 0.1 mm 1 m/s 736 mmHg 93%
07:00 +8°C° 0.1 mm 1 m/s 736 mmHg 92%
08:00 +8°C° 0.2 mm 2 m/s 736 mmHg 88%
09:00 +8°C° 0.2 mm 2 m/s 736 mmHg 85%
10:00 +9°C° 0.2 mm 2 m/s 736 mmHg 81%
11:00 +9°C° 0.4 mm 2 m/s 735 mmHg 81%
12:00 +9°C° 0.4 mm 3 m/s 735 mmHg 81%
13:00 +9°C° 0.4 mm 3 m/s 735 mmHg 81%
14:00 +10°C° 0.1 mm 3 m/s 735 mmHg 79%
15:00 +10°C° 0.1 mm 2 m/s 735 mmHg 76%
16:00 +10°C° 0.1 mm 2 m/s 734 mmHg 74%
17:00 +9°C° 0 mm 2 m/s 734 mmHg 78%
18:00 +8°C° 0 mm 2 m/s 734 mmHg 83%
19:00 +8°C° 0 mm 1 m/s 734 mmHg 87%
20:00 +7°C° 0 mm 1 m/s 734 mmHg 88%
21:00 +7°C° 0 mm 1 m/s 734 mmHg 90%
22:00 +6°C° 0 mm 1 m/s 734 mmHg 91%
23:00 +6°C° 0 mm 1 m/s 734 mmHg 91%

21 Aprilie, Miercuri

Timp Temperatura Precipitaţii Vânt Presiune Umiditate
00:00 +6°C° 0 mm 1 m/s 734 mmHg 91%
01:00 +5°C° 0 mm 2 m/s 734 mmHg 91%
02:00 +6°C° 0 mm 1 m/s 734 mmHg 91%
03:00 +6°C° 0 mm 1 m/s 734 mmHg 90%
04:00 +6°C° 0 mm 1 m/s 734 mmHg 90%
05:00 +6°C° 0 mm 1 m/s 734 mmHg 87%
06:00 +7°C° 0 mm 1 m/s 734 mmHg 84%
07:00 +8°C° 0 mm 1 m/s 734 mmHg 81%
08:00 +9°C° 0 mm 1 m/s 734 mmHg 77%
09:00 +10°C° 0 mm 1 m/s 734 mmHg 73%
10:00 +11°C° 0 mm 1 m/s 734 mmHg 69%
11:00 +12°C° 0.2 mm 1 m/s 734 mmHg 66%
12:00 +13°C° 0.2 mm 1 m/s 734 mmHg 62%
13:00 +14°C° 0.2 mm 1 m/s 733 mmHg 58%
14:00 +14°C° 0.2 mm 1 m/s 733 mmHg 57%
15:00 +14°C° 0.2 mm 1 m/s 733 mmHg 57%
16:00 +14°C° 0.2 mm 1 m/s 733 mmHg 56%
17:00 +13°C° 0.1 mm 1 m/s 733 mmHg 62%
18:00 +11°C° 0.1 mm 1 m/s 733 mmHg 68%
19:00 +10°C° 0.1 mm 1 m/s 733 mmHg 75%
20:00 +9°C° 0 mm 1 m/s 733 mmHg 76%
21:00 +8°C° 0 mm 2 m/s 733 mmHg 77%
22:00 +7°C° 0 mm 2 m/s 734 mmHg 78%
23:00 +7°C° 0 mm 2 m/s 734 mmHg 80%

22 Aprilie, Joi

Timp Temperatura Precipitaţii Vânt Presiune Umiditate
00:00 +7°C° 0 mm 2 m/s 733 mmHg 81%
01:00 +6°C° 0 mm 2 m/s 733 mmHg 83%
02:00 +6°C° 0 mm 2 m/s 733 mmHg 84%
03:00 +6°C° 0 mm 2 m/s 733 mmHg 85%
04:00 +6°C° 0 mm 2 m/s 733 mmHg 86%
05:00 +8°C° 0 mm 3 m/s 733 mmHg 83%
06:00 +9°C° 0 mm 3 m/s 734 mmHg 80%
07:00 +10°C° 0 mm 3 m/s 734 mmHg 78%
08:00 +12°C° 0 mm 4 m/s 734 mmHg 72%
09:00 +13°C° 0 mm 5 m/s 734 mmHg 66%
10:00 +14°C° 0 mm 5 m/s 734 mmHg 61%
11:00 +15°C° 0.1 mm 5 m/s 734 mmHg 60%
12:00 +15°C° 0.1 mm 5 m/s 734 mmHg 59%
13:00 +15°C° 0.1 mm 5 m/s 734 mmHg 58%
14:00 +15°C° 0.3 mm 5 m/s 734 mmHg 63%
15:00 +14°C° 0.3 mm 5 m/s 734 mmHg 68%
16:00 +14°C° 0.3 mm 4 m/s 735 mmHg 73%
17:00 +12°C° 0.7 mm 4 m/s 735 mmHg 79%
18:00 +11°C° 0.7 mm 4 m/s 735 mmHg 85%
19:00 +9°C° 0.7 mm 3 m/s 736 mmHg 91%
20:00 +7°C° 0.6 mm 4 m/s 736 mmHg 92%
21:00 +5°C° 0.6 mm 4 m/s 737 mmHg 94%
22:00 +4°C° 0.6 mm 4 m/s 737 mmHg 95%
23:00 +3°C° 0.3 mm 4 m/s 737 mmHg 96%
Arată mai mult

Formular de consimțământ

Meteoprog și furnizorii noștri de servicii pot stoca și accesa date personale, precum cookies, identificatori de dispozitiv sau alte tehnologii similare pe dispozitivul dumneavoastră și procesa astfel de date pentru a personaliza conținutul și reclamele, dar și pentru a oferi caracteristici de social media și pentru a analiza traficul.

  • Stocarea și/sau accesarea informațiilor pe dispozitivul dumneavoastră

    Cookies, identificatori de dispozitiv sau alte informații pot fi stocate sau accesate pe dispozitiv în scopurile indicate mai sus.

  • Reclame și conținut personalizat, evaluarea reclamelor și a conținutului, informații despre audiențe și dezvoltarea produselor

    Reclamele și conținutul pot fi personalizate pe baza unui profil. Pot fi adăugate date suplimentare pentru a personaliza mai bine reclamele și conținutul. Performanța reclamelor și conținutului poate fi măsurată. Pot fi obținute informații despre utilizatorii care au văzut reclamele și conținutul. Aceste date pot fi utilizate pentru a dezvolta sau îmbunătăți experiența utilizatorilor, sistemele și software-ul.

Dând clic pe ‘Sunt de acord’, permiteți utilizarea cookie-urilor menționate, a identificatorilor de dispozitiv, balizelor web sau altor tehnologii similare. Setările pot fi modificate din browser-ul dispozitivului dumneavoastră.

În anumite scopuri, interesele legitime pot prima asupra consimțământului. Puteți citi mai multe informații în acest sens în Politica privind Confidențialitatea Datelor și Cookie.